EWS-G2 (GOES 15)

Last updated on Thu Oct 30 2025 00:02:23 GMT+0000 (Coordinated Universal Time)

1 36411U 10008A 25302.54673051 .00000046 00000+0 00000+0 0 9995 2 36411 0.6967 85.7804 0005957 152.8345 57.9301 1.00275687 57329
UTC large
Height (km)
Speed (km/s)
/
Latitude / Longitude
Inclination (degrees)
Orbital Period (minutes)
Azimuth
Elevation
Range (km)
Doppler Factor

Next 0 passes for location: London (51.5072 / 0.1276)

Sorry there are no passes over London.